Regional Weather Roundup
Issued by NWS Upton, NY

Current Version | Previous Version | Graphics & Text | Print | Product List | Glossary Off
Versions: 1 2 3 4 5 6 7 8 9 10 11 12 13 14 15 16 17 18 19 20 21 22 23 24 25 26 27 28 29 30 31 32 33 34 35 36 37 38 39 40 41 42 43 44 45 46 47 48 49 50
000 ASUS41 KOKX 151505 RWROKX REGIONAL WEATHER ROUNDUP NATIONAL WEATHER SERVICE NEW YORK NY 1100 AM EDT MON SEP 15 2014 NOTE: "FAIR" INDICATES FEW OR NO CLOUDS BELOW 12,000 FEET WITH NO SIGNIFICANT WEATHER AND/OR OBSTRUCTIONS TO VISIBILITY. NYZ071-072-176-178-NJZ106-104-151600- NEW YORK CITY METRO AREA CITY SKY/WX TMP DP RH WIND PRES REMARKS CENTRAL PARK SUNNY 64 42 44 VRB3 30.26F LAGUARDIA APRT MOSUNNY 64 46 52 NE10 30.23F KENNEDY INTL MOSUNNY 68 42 38 N8 30.24S NEWARK/LIBERTY MOSUNNY 67 42 40 N7 30.23F BRNX BOT. GARD N/A 64 43 45 NE13 30.25F TETERBORO SUNNY 65 40 39 CALM 30.22F $$ NYZ177-179-078>081-151600- LONG ISLAND NEW YORK CITY SKY/WX TMP DP RH WIND PRES REMARKS FARMINGDALE SUNNY 65 45 48 NE9 30.23F ISLIP MOSUNNY 65 44 46 NE10 30.22S SHIRLEY LGT RAIN 65 45 48 N10 30.23F WESTHAMPTON SUNNY 65 47 52 N12 30.23F MONTAUK POINT N/A 62 51 67 N5 30.23F $$ NYZ052-065-067-151600- HUDSON VALLEY CITY SKY/WX TMP DP RH WIND PRES REMARKS WHITE PLAINS MOSUNNY 64 38 38 CALM 30.22F NEWBURGH MOSUNNY 59 48 67 NW5 30.25F MONTGOMERY SUNNY 60 46 59 CALM 30.23F POUGHKEEPSIE SUNNY 61 46 57 SW3 30.23F ALBANY MOSUNNY 56 46 69 NE3 30.24F $$ NJZ001-105-106-008-010-013-015-019>022-104-151600- NEW JERSEY CITY SKY/WX TMP DP RH WIND PRES REMARKS NEWARK/LIBERTY MOSUNNY 67 42 40 N7 30.23F TETERBORO SUNNY 65 40 39 CALM 30.22F CALDWELL SUNNY 63 43 48 NE5 30.24F MORRISTOWN MOSUNNY 64 48 55 CALM 30.24F SOMERVILLE SUNNY 66 43 43 CALM 30.22F LINDEN FAIR 70 43 37 NE5 30.25F SUSSEX SUNNY 63 46 54 CALM 30.24F ANDOVER N/A 62 47 57 CALM 30.24F TRENTON SUNNY 65 43 44 NE8 30.24S MILLVILLE SUNNY 66 51 58 N7 30.24F ATLANTIC CITY SUNNY 66 52 60 CALM 30.23F WRIGHTSTOWN SUNNY 65 50 57 N5 30.22S TOMS RIVER MOSUNNY 64 52 63 CALM 30.23F BELMAR SUNNY 64 45 48 NE7 30.23F $$ PAZ047>061-062-071-151600- EASTERN PENNSYLVANIA CITY SKY/WX TMP DP RH WIND PRES REMARKS PHILADELPHIA MOSUNNY 66 47 50 VRB3 30.25R ALLENTOWN SUNNY 62 47 57 W3 30.25F SCRANTON SUNNY 60 44 55 W3 30.24F $$ CTZ002-004>006-009-010-012-RIZ004-006-007-MAZ004-011-015-151600- SOUTHERN NEW ENGLAND IN CT CITY SKY/WX TMP DP RH WIND PRES REMARKS BRADLEY INTL PTSUNNY 60 44 55 CALM 30.23S HARTFORD SUNNY 60 46 59 VRB6 30.23F DANBURY SUNNY 62 43 49 CALM 30.24F WTRBRY/OXFORD MOSUNNY 61 43 51 N5 30.24S BRIDGEPORT SUNNY 64 46 52 SE7 30.23F MERIDEN SUNNY 64 41 42 NE3 30.22F NEW HAVEN MOSUNNY 65 42 43 VRB5 30.23F CHESTER FAIR 61 39 44 N6 30.24S GROTON SUNNY 63 46 54 N8 30.22F WILLIMANTIC SUNNY 61 43 51 CALM 30.22F IN RI CITY SKY/WX TMP DP RH WIND PRES REMARKS PROVIDENCE MOSUNNY 64 46 52 VRB6 30.22F BLOCK ISLAND SUNNY 61 52 72 N7 30.22F WESTERLY MOSUNNY 62 47 57 VRB3 30.22F IN MA CITY SKY/WX TMP DP RH WIND PRES REMARKS BOSTON MOSUNNY 61 45 55 NE3 30.22F WORCESTER PTSUNNY 56 40 55 VRB6 30.22S WESTFIELD SUNNY 61 43 51 NE5 30.24S PROVINCETOWN SUNNY 63 50 63 N8 30.21F NANTUCKET PTSUNNY 64 48 56 SE8 30.20F $$ ANZ330-335-338-340-345-350-353-355-151600- COASTAL MARINE OBSERVATIONS STATION/POSITION TIME SKY/WX TEMP WIND PRES VSBY WAVE AIR SEA DIR/SP/G HT/PER (UTC) (F) (DEG/KT/KT) (MB) (MI) (FT/S) NY HARB ENTRANCE NOT AVBL 4S FIRE IS NOT AVBL 23SW MTP 1500 N/A 2/ 4 HUDSON CANYON 1500 66 74 60/ 4/ 6 1022.6 2/ 6 EXECUTION ROCKS 1500 62 71 70/ 10/ 12 N/A WESTERN LI SOUND 1500 60 70/ 6/ 8 N/A 1/ 3 CENTRAL LI SOUND 1400 58 71 340/ 8/ 10 N/A 1/ 4 EASTERN LI SOUND 1400 63 68 10/ 6/ 10 N/A ROBBINS REEF 1500 62 20/ 10/ 12 1022.6 $$ >>>>>>>>>>>>>>>>>>>>>>>>>>>> KEY <<<<<<<<<<<<<<<<<<<<<<<<<<< > < > SKY/WX - SKY CONDITION/PRESENT WEATHER < > TMP - TEMPERATURE IN FAHRENHEIT < > DP - DEWPOINT IN FAHRENHEIT < > RH - RELATIVE HUMIDITY IN PERCENT < > WIND - DIRECTION AND SPEED IN MPH < > PRES - MEAN SEA LEVEL PRESSURE IN INCHES OF HG < > WCI - WIND CHILL INDEX < > VSB - VISIBILITY IN MILES < > HX - HEAT INDEX < > TC - TEMPERATURE IN CELSIUS < > VRB - VARIABLE WIND DIRECTION < > < >>>>>>>>>>>>>>>>>>>>>>>>>>>> KEY <<<<<<<<<<<<<<<<<<<<<<<<<<<

USA.gov is the U.S. government's official web portal to all federal, state and local government web resources and services.